Dewpoint
39 43 43 45 47 48 46 38 28 44 48 29 26 27 30 35 32 34 35 36 34 24 19 18 17 17 20 34 33 27 36 35 25 19 17 15 21 22 25 28 27 27 29 30
38 40 42 43 47 47 40 36 31 45 44 24 20 24 28 29 34 31 32 34 37 36 33 29 27 20 35 36 38 38 37 30 19 19 24 24 23 24 26 26 27 26 29 29
39 38 39 42 45 46 43 37 32 31 34 31 28 25 24 27 31 31 32 32 35 33 34 36 31 29 33 37 34 39 38 35 27 23 18 15 19 25 26 28 31 29 27 28
37 38 39 40 42 46 45 39 35 31 30 27 28 29 26 20 22 24 22 26 29 29 30 29 30 30 30 30 33 27 32 32 30 24 20 20 20 20 23 25 28 29 30 25
37 39 39 39 42 44 43 38 33 32 29 29 29 28 27 23 18 21 21 21 17 16 20 22 19 18 22 23 23 24 24 27 26 29 23 23 23 23 23 21 21 21 21 21
36 38 39 41 42 42 42 38 38 38 32 30 25 25 26 24 24 24 23 23 22 21 20 25 26 28 29 29 27 26 25 27 26 25 21 19 21 23 20 19 18 18 20 23
37 38 39 41 41 41 43 42 41 37 33 26 27 23 21 21 23 25 24 25 24 24 27 28 28 27 26 27 27 27 27 25 24 24 19 18 17 15 14 16 16 16 15 17
36 38 39 40 41 40 42 44 42 39 33 27 28 26 26 26 24 23 24 24 25 28 27 26 22 20 21 21 23 23 25 26 26 25 20 15 11 10 9 9 9 11 13 18
39 39 38 39 41 40 42 44 48 42 36 29 26 28 26 26 27 28 28 29 31 30 27 26 24 17 11 10 10 17 21 26 27 26 22 14 16 12 12 15 16 15 18 19
39 39 38 39 41 42 42 43 46 41 35 35 32 30 27 28 29 30 30 30 29 33 32 29 24 22 18 15 13 13 18 26 27 29 27 24 20 19 20 22 22 22 22 26
39 38 39 41 44 43 43 43 47 43 38 38 34 33 32 30 31 30 27 30 31 31 30 27 25 23 19 18 17 16 16 21 27 28 26 25 24 23 24 27 28 27 30 32
38 37 40 43 44 43 44 42 46 48 41 39 40 37 35 32 31 32 32 31 28 33 31 31 30 27 26 24 24 20 20 21 25 22 24 29 26 25 31 34 32 31 32 30
37 37 41 42 43 43 45 44 46 45 39 36 39 36 37 37 37 37 35 31 31 30 31 27 27 27 23 23 21 21 21 23 28 30 30 29 29 29 29 26 28 27 28 30
37 39 43 43 44 45 45 43 46 44 38 34 34 37 37 37 37 37 37 36 35 34 31 32 33 30 26 22 23 22 22 23 22 23 24 22 21 21 23 24 26 27 27 29
38 41 43 44 44 44 45 46 45 44 38 35 33 31 30 30 32 32 34 34 34 32 33 33 32 28 28 28 27 26 22 23 25 26 25 26 27 25 24 24 23 25 27 30
41 43 43 43 44 43 42 36 44 44 40 38 31 30 28 28 30 31 32 34 34 34 32 33 33 31 30 28 26 25 21 21 23 25 27 28 30 29 25 25 27 29 31 34
42 43 43 43 43 43 39 34 35 39 37 35 31 29 26 28 28 29 30 33 31 34 36 34 33 32 32 30 26 26 24 24 26 26 28 30 28 28 28 30 28 32 33 38
43 42 42 41 41 41 38 41 42 39 37 38 30 28 26 26 28 30 28 35 37 37 36 34 32 33 33 28 29 28 27 26 28 30 30 31 30 30 30 30 30 30 33 36
42 41 41 41 39 37 34 43 42 41 37 33 32 23 24 22 24 28 32 36 33 36 33 33 32 32 30 28 24 23 26 27 28 29 29 30 31 31 31 32 32 32 36 41
42 40 38 33 37 41 39 36 35 35 35 33 29 23 24 21 23 32 31 29 31 29 28 29 32 30 28 27 28 29 30 30 30 29 30 33 33 33 33 33 34 35 37 40
39 33 34 40 41 37 35 32 31 33 29 30 24 23 24 24 27 29 28 28 28 25 28 29 28 26 28 30 31 32 33 36 35 33 33 34 33 35 37 39 40 41 44 47
38 37 40 40 37 33 29 27 32 30 24 21 21 21 25 29 34 30 33 30 30 25 27 31 26 27 28 33 40 42 40 42 39 38 36 35 35 39 40 42 47 48 47 48
38 34 34 33 32 25 24 20 25 24 25 27 32 32 36 37 38 35 34 31 29 29 31 27 26 32 38 37 37 38 39 42 43 40 39 37 37 41 46 46 46 46 45 43
33 31 24 27 25 23 19 18 17 21 23 22 26 28 29 29 31 30 26 25 26 28 23 23 35 34 37 39 39 38 39 44 42 41 39 41 47 46 43 43 41 39 38 37
32 30 22 24 24 24 26 26 22 18 20 25 29 30 31 29 30 32 28 24 25 27 30 32 33 35 38 38 39 39 43 43 43 44 45 44 42 41 40 40 41 39 38 38
32 31 25 25 25 27 28 26 26 27 28 31 32 29 30 28 28 27 28 27 25 30 33 35 35 35 37 38 39 42 44 42 42 43 42 42 41 40 41 41 40 38 38 37
30 27 27 27 26 27 28 29 27 29 29 29 30 26 23 28 26 21 23 27 32 34 35 35 36 36 38 38 40 42 42 42 41 41 41 41 41 40 40 38 39 38 37 36
Lifted_Index
14 14 13 13 12 12 11 11 10 10 9 9 9 8 6 5 5 5 4 3 3 3 3 3 3 2 2 2 3 3 2 2 2 3 3 3 3 2 2 2 2 2 2 1
14 14 13 13 12 11 11 10 10 10 9 9 9 8 7 6 5 5 5 4 3 3 3 3 3 2 2 2 3 3 3 3 3 3 3 3 2 2 2 2 2 2 2 2
13 13 13 12 12 11 10 10 10 9 9 9 9 8 7 6 6 6 6 5 4 4 3 3 2 2 2 3 4 4 4 3 3 3 4 3 2 2 2 3 2 2 2 2
12 12 12 12 11 10 10 9 9 9 9 9 9 8 7 7 6 7 7 6 6 5 5 4 4 4 4 5 6 6 5 4 4 4 5 4 3 3 3 4 3 3 3 3
11 11 11 10 10 9 9 8 8 8 8 8 8 8 7 7 7 7 7 7 7 7 6 6 6 6 6 7 7 7 6 5 5 5 5 4 3 4 4 4 4 4 4 4
10 10 10 9 9 9 8 7 7 7 7 7 7 7 7 7 7 7 7 7 7 7 7 7 7 8 8 8 8 8 7 6 5 4 4 4 4 5 5 5 5 5 4 4
10 9 9 9 9 8 7 6 6 6 6 6 6 6 6 6 7 7 7 7 7 7 7 8 8 8 8 8 8 8 7 6 5 4 4 4 5 6 6 6 6 5 5 5
9 9 9 9 8 8 7 6 5 5 5 5 5 6 6 6 6 6 6 6 6 7 7 7 7 6 7 7 7 7 7 6 5 4 3 4 5 6 7 6 6 6 5 5
9 9 9 9 8 8 7 6 5 5 5 5 5 5 5 5 5 5 5 5 6 6 6 6 5 5 6 6 6 6 6 5 5 4 3 4 5 6 6 6 6 6 6 5
9 9 9 8 8 7 7 6 4 4 5 5 4 5 5 5 5 5 5 5 5 5 5 5 5 5 5 5 5 5 4 4 4 4 3 4 5 6 5 5 5 5 5 5
9 9 8 8 7 6 6 5 4 4 4 5 4 4 5 5 5 5 5 5 5 5 5 5 5 5 5 5 5 5 4 3 3 3 3 4 5 6 5 4 4 5 4 4
9 9 8 7 6 6 5 4 4 3 4 5 5 5 5 5 5 5 5 5 5 4 4 4 5 5 5 5 5 5 5 4 3 3 4 4 5 5 5 5 5 5 4 4
9 9 7 6 5 5 4 4 3 3 4 5 5 5 5 5 5 5 5 5 5 5 5 5 5 5 6 6 6 6 5 5 5 4 5 5 5 5 5 5 5 5 5 5
8 8 6 5 4 4 4 3 3 3 4 4 5 5 5 5 5 5 5 5 5 5 5 5 5 6 6 6 6 6 6 6 6 6 6 6 6 6 6 6 5 5 5 5
6 5 5 4 4 3 3 3 3 3 3 4 5 5 5 5 5 5 5 5 5 5 5 5 5 5 5 6 6 7 7 7 6 6 6 6 6 6 6 6 6 6 6 5
3 3 3 3 3 3 3 3 3 3 3 4 5 5 5 5 5 5 4 4 4 4 4 4 5 5 5 6 7 8 7 6 6 5 5 5 6 6 6 6 6 6 5 5
2 2 2 2 2 2 2 2 2 2 3 4 5 6 5 5 4 3 3 3 3 3 3 4 4 4 5 6 7 8 7 5 4 4 3 4 5 6 6 5 5 5 5 4
1 1 2 2 2 2 2 2 1 2 3 4 5 5 5 3 2 1 1 1 1 2 2 3 3 4 5 6 7 7 6 5 4 3 3 4 5 5 5 5 5 5 5 5
1 2 2 2 2 1 1 1 1 1 2 3 4 4 4 2 1 1 0 1 1 1 2 2 3 4 6 6 6 6 5 5 4 3 3 4 5 5 5 5 6 6 6 5
2 2 2 1 1 1 1 1 1 1 2 3 3 3 2 2 1 1 1 1 1 2 2 2 3 5 5 5 5 5 5 4 4 4 4 4 5 5 5 5 6 6 5 5
2 1 1 1 1 1 1 1 1 1 2 3 2 2 1 1 1 1 1 1 2 2 2 3 4 4 4 4 4 4 4 3 3 3 3 4 5 5 5 5 5 4 4 4
1 1 1 0 0 1 1 1 1 1 2 2 1 1 1 0 0 0 1 1 2 3 3 3 4 4 4 4 4 3 3 2 1 1 2 4 5 5 4 4 4 3 3 3
0 0 0 0 0 0 0 0 0 0 1 1 0 0 0 0 0 0 1 1 2 2 3 3 3 4 4 4 4 3 2 2 1 1 2 3 4 4 4 4 3 3 3 3
0 1 1 0 0 0 -0 -0 -0 0 0 0 0 0 0 0 0 1 1 2 2 2 3 3 4 4 5 5 4 3 3 2 2 2 2 3 3 3 4 4 4 4 4 4
1 1 0 0 -0 -0 -0 -0 -0 0 0 0 0 0 0 0 1 1 1 2 2 2 3 4 5 6 6 6 5 4 3 3 3 3 2 2 3 3 4 4 5 6 5 5
1 1 0 -0 -0 -0 -0 -0 0 0 0 0 0 0 1 1 1 2 2 2 2 2 3 5 6 7 7 7 6 5 4 4 3 3 2 3 3 3 4 5 6 6 6 6
1 1 0 -0 -0 0 0 0 0 -0 0 0 0 1 1 1 2 2 3 3 3 3 4 5 6 7 7 7 6 6 5 5 4 3 3 3 3 4 5 6 6 6 6 6